Date,TemperatureHighF,TemperatureAvgF,TemperatureLowF,DewpointHighF,DewpointAvgF,DewpointLowF,HumidityHigh,HumidityAvg,HumidityLow,PressureMaxIn,PressureMinIn,WindSpeedMaxMPH,WindSpeedAvgMPH,GustSpeedMaxMPH,PrecipitationSumIn
2013-3-1,43.4,38.4,35.1,35.1,30.7,26.3,91,74,57,29.64,29.45,21,6,22,0.00
2013-3-2,37.5,34.1,28.9,26.9,25.1,23.0,80,70,63,29.64,29.55,23,9,23,0.00
2013-3-3,32.6,29.6,27.3,26.3,21.4,16.5,84,71,59,29.60,29.53,25,10,25,0.00
2013-3-4,39.0,32.0,27.0,23.2,21.0,18.3,75,64,51,29.75,29.58,36,10,36,0.00
2013-3-5,44.4,36.7,29.6,29.3,25.6,21.9,76,64,50,29.91,29.74,24,6,26,0.00
2013-3-6,41.5,38.5,36.1,36.3,31.3,28.2,88,76,64,29.90,29.81,37,6,37,0.00
2013-3-7,36.7,34.7,31.9,32.7,29.8,26.3,95,83,70,29.95,29.84,25,11,27,0.00
2013-3-8,38.9,33.7,29.8,31.5,29.3,25.4,100,85,63,30.08,29.85,31,10,31,0.07
2013-3-9,50.6,38.3,28.4,27.3,25.4,23.3,88,62,37,30.22,30.06,23,6,23,0.00
2013-3-10,51.2,36.8,22.7,34.6,29.4,21.0,95,76,48,30.29,30.16,15,2,15,0.00
2013-3-11,53.5,44.1,35.9,47.2,39.6,32.4,96,85,66,30.20,29.97,20,3,20,0.00
2013-3-12,54.6,50.7,41.3,54.5,49.8,37.1,100,97,85,29.98,29.55,27,4,27,0.74
2013-3-13,47.7,40.8,31.5,37.5,29.6,22.2,93,66,38,29.76,29.64,21,3,25,0.00
2013-3-14,37.1,31.0,26.5,28.9,14.3,7.6,74,50,37,29.78,29.69,35,10,35,0.00
2013-3-15,40.6,33.8,24.1,31.7,18.8,8.6,77,55,38,29.82,29.59,26,4,29,0.00
2013-3-16,37.9,33.1,29.2,29.5,23.0,15.0,90,67,46,29.80,29.62,21,3,21,0.00
2013-3-17,36.2,30.7,24.8,28.0,14.6,7.4,90,54,30,30.21,29.80,25,6,25,0.00
2013-3-18,35.4,28.1,19.1,28.0,13.4,5.6,95,57,33,30.33,29.97,19,2,19,0.14
2013-3-19,38.7,34.1,29.3,36.1,32.1,27.8,97,92,86,29.98,29.56,18,2,19,0.36
2013-3-20,40.7,33.6,27.7,31.8,20.9,16.1,89,61,39,29.74,29.65,33,3,34,0.00
2013-3-21,37.1,31.9,27.6,24.8,17.6,9.8,85,58,33,29.71,29.49,19,4,21,0.00
2013-3-22,37.9,32.4,24.3,24.3,19.1,12.7,70,58,48,29.71,29.57,28,4,28,0.00
2013-3-23,43.2,37.3,33.1,24.2,20.8,15.8,65,52,34,29.77,29.63,37,8,37,0.00
2013-3-24,43.5,36.0,25.2,26.8,22.5,17.9,81,58,45,29.80,29.59,24,5,24,0.00
2013-3-25,44.7,39.2,33.2,28.5,26.0,24.1,73,60,48,29.62,29.34,22,5,23,0.00
2013-3-26,47.7,40.2,29.5,31.0,27.8,23.8,81,62,44,29.73,29.46,25,6,25,0.00
2013-3-27,50.1,38.4,23.0,30.6,24.8,21.0,94,62,34,29.82,29.72,26,5,27,0.00
2013-3-28,47.3,40.4,30.4,35.5,31.4,24.5,86,70,55,29.98,29.81,23,6,24,0.00
2013-3-29,52.4,44.8,35.0,34.5,30.4,28.0,78,58,41,30.01,29.91,24,6,24,0.00
2013-3-30,55.7,42.9,29.0,35.1,27.4,20.4,93,59,27,30.04,29.93,21,3,21,0.00
2013-3-31,55.5,41.8,26.4,42.3,30.9,23.2,95,68,36,30.03,29.56,26,5,29,0.08